Delta Virtual Airport Information Service

Boston Logan International Airport

ICAO: KBOS Country: United States
Latitude: 42.363 Longitude: -71.0064
Latest Arrival : SWA1050 (D) (KMDW-KBOS) Latest Departure : JBU487 (KBOS-KLAX)


WX CaptureLIVE
Data provided by noaa.gov | Fetched at 08:46:17

METAR : KBOS 041254Z 08005KT 10SM BKN046 OVC140 23/21 A3004 RMK AO2 SLP173 T02280206

TAF : KBOS 041121Z 0412/0518 09005KT P6SM FEW050 BKN200 FM041700 12008KT P6SM VCSH OVC150 FM042100 16016G28KT 6SM BR VCSH OVC035 WS020/17045KT FM050000 18023G40KT P6SM VCSH OVC030 WS020/19045KT FM050200 20024G45KT P6SM VCSH BKN050 FM050600 22013G24KT P6SM SCT200


Runway Data for KBOS
Data provided by openaviationdata.com

Runway ID Mag Var Hdg Length Elevation Surface ILS Freq ILS Id ILS Slope
04L -15 35° 7475 ft 0 ft Bituminous -- -- --
04R -15 35° 7513 ft 0 ft Bituminous 110.3 IBOS 3
9 -15 92° 6761 ft 0 ft Bituminous -- -- --
14 -15 140° 5033 ft 0 ft Asphalt -- -- --
15L -15 151° 2555 ft 0 ft Asphalt -- -- --
15R -15 151° 9857 ft 0 ft Bituminous 110.7 IMDC 3
22L -15 215° 7513 ft 0 ft Bituminous 110.3 ILQN 3
22R -15 215° 7475 ft 0 ft Bituminous -- -- --
27 -15 272° 6761 ft 0 ft Bituminous 111.3 IDGU 3
32 -15 320° 5033 ft 0 ft Asphalt -- -- --
33L -15 331° 9857 ft 0 ft Bituminous 110.7 ILIP 3
33R -15 331° 2555 ft 0 ft Asphalt -- -- --

Boston Logan International Airport, United States
Use only for reference purposes



Not for navigational purposes.